FW3054 Weather Reports


time (UTC)temp
C
wind
direction
speed
KPH
gust
KPH
rain 1hr
cm
rain 24hr
cm
rain mn
cm
humidity
%
barometer
mb
20260902043537 22 0.0 0.0 0.00 0.00 0.00 87 1022.8
20260902042517 22 0.0 0.0 0.00 0.00 0.00 87 1022.8
20260902041516 22 0.0 0.0 0.00 0.00 0.00 87 1022.6
20260902040537 22 0.0 0.0 0.00 0.00 0.00 87 1022.4
20260902035516 22 0.0 0.0 0.00 0.00 0.00 87 1022.4
20260902034517 22 0.0 0.0 0.00 0.00 0.00 87 1022.1
20260902033517 22 0.0 0.0 0.00 0.00 0.00 86 1022.1
20260902032517 22 0.0 0.0 0.00 0.00 0.00 86 1022.1
20260902031517 22 0.0 0.0 0.00 0.00 0.00 86 1022.0
20260902030517 22 0.0 0.0 0.00 0.00 0.00 86 1022.0
20260902025516 22 0.0 0.0 0.00 0.00 0.00 85 1022.1
20260902024537 23 0.0 0.0 0.00 0.00 0.00 85 1022.0
20260902023517 23 0.0 1.6 0.00 0.00 0.00 85 1022.0
20260902022517 23 0.0 0.0 0.00 0.00 0.00 84 1022.0
20260902021516 23 0.0 0.0 0.00 0.00 0.00 84 1021.5
20260902020516 23 0.0 0.0 0.00 0.00 0.00 83 1021.6
20260902015517 23 0.0 0.0 0.00 0.00 0.00 83 1021.7
20260902014516 24 0.0 0.0 0.00 0.00 0.00 82 1021.4
20260902013517 24 0.0 0.0 0.00 0.00 0.00 81 1021.5
20260902012517 24 0.0 0.0 0.00 0.00 0.00 80 1021.4
20260902011517 25 0.0 0.0 0.00 0.00 0.00 79 1021.2
20260902010516 25 0.0 1.6 0.00 0.00 0.00 78 1021.1
20260902005516 25 0.0 0.0 0.00 0.00 0.00 77 1021.1
20260902004516 25 0.0 0.0 0.00 0.00 0.00 76 1020.9
20260902003517 25 0.0 0.0 0.00 0.00 0.00 75 1020.9
20260902002516 26 0.0 0.0 0.00 0.00 0.00 76 1020.9
20260902001536 26 0.0 0.0 0.00 0.00 0.00 76 1021.0
20260902000516 26 0.0 0.0 0.00 0.00 0.00 74 1020.9
20260901235516 26 0.0 1.6 0.00 0.00 0.00 73 1020.9
20260901234536 27 0.0 0.0 0.00 0.00 0.00 72 1020.9
20260901233516 27 0.0 0.0 0.00 0.00 0.00 70 1020.9
20260901232519 27 0.0 1.6 0.00 0.00 0.00 69 1021.2
20260901231516 28 0.0 0.0 0.00 0.00 0.00 67 1021.2
20260901230536 28 0.0 0.0 0.00 0.00 0.00 66 1021.4
20260901225516 29 0.0 0.0 0.00 0.00 0.00 64 1021.3
20260901224516 29 0.0 0.0 0.00 0.00 0.00 64 1021.4
20260901223516 30 0 1.6 4.8 0.00 0.00 0.00 59 1021.5
20260901222516 30 0.0 1.6 0.00 0.00 0.00 62 1021.5
20260901221516 30 23 1.6 4.8 0.00 0.00 0.00 56 1021.5
20260901220516 30 23 1.6 6.4 0.00 0.00 0.00 56 1021.4
20260901215516 30 23 1.6 4.8 0.00 0.00 0.00 56 1021.4
20260901214516 31 0.0 1.6 0.00 0.00 0.00 58 1021.5
20260901213516 31 0 3.2 6.4 0.00 0.00 0.00 53 1021.5
20260901212516 31 23 1.6 4.8 0.00 0.00 0.00 51 1021.6
20260901211516 31 23 1.6 4.8 0.00 0.00 0.00 51 1021.6
20260901210516 32 23 1.6 3.2 0.00 0.00 0.00 52 1021.7
20260901205516 32 0.0 4.8 0.00 0.00 0.00 51 1021.7
20260901204516 32 23 1.6 4.8 0.00 0.00 0.00 49 1021.8
20260901203516 32 23 1.6 6.4 0.00 0.00 0.00 49 1021.9
20260901202516 32 23 1.6 3.2 0.00 0.00 0.00 49 1021.8
20260901201536 32 23 3.2 4.8 0.00 0.00 0.00 50 1022.0
20260901200557 32 45 1.6 9.7 0.00 0.00 0.00 51 1022.1
20260901195516 32 23 3.2 8.0 0.00 0.00 0.00 49 1022.1
20260901194516 32 23 1.6 8.0 0.00 0.00 0.00 51 1022.2
20260901193516 32 23 3.2 8.0 0.00 0.00 0.00 51 1022.3
20260901192516 32 23 3.2 6.4 0.00 0.00 0.00 50 1022.3
20260901191516 32 23 1.6 3.2 0.00 0.00 0.00 50 1022.4
20260901190516 32 0 3.2 6.4 0.00 0.00 0.00 50 1022.6
20260901185516 32 23 3.2 6.4 0.00 0.00 0.00 49 1022.7
20260901184516 32 0 1.6 6.4 0.00 0.00 0.00 50 1022.7
20260901183516 32 23 1.6 4.8 0.00 0.00 0.00 50 1022.9
20260901182516 31 23 3.2 4.8 0.00 0.00 0.00 50 1022.8
20260901181516 31 23 3.2 8.0 0.00 0.00 0.00 51 1022.9
20260901180516 31 23 1.6 6.4 0.00 0.00 0.00 51 1023.1
20260901175516 31 0.0 3.2 0.00 0.00 0.00 55 1023.0
20260901174516 31 23 3.2 6.4 0.00 0.00 0.00 54 1023.1
20260901173516 31 0 3.2 8.0 0.00 0.00 0.00 55 1023.1
20260901172516 31 23 3.2 8.0 0.00 0.00 0.00 54 1023.1
20260901171516 31 23 3.2 6.4 0.00 0.00 0.00 55 1023.2
20260901170516 30 0 1.6 3.2 0.00 0.00 0.00 59 1023.4
20260901165515 30 23 1.6 3.2 0.00 0.00 0.00 60 1023.4
20260901164516 30 23 1.6 4.8 0.00 0.00 0.00 64 1023.7
20260901163516 29 0 3.2 6.4 0.00 0.00 0.00 64 1023.8
20260901162516 28 23 3.2 6.4 0.00 0.00 0.00 66 1023.7
20260901161515 28 23 3.2 6.4 0.00 0.00 0.00 66 1023.8
20260901160516 28 23 1.6 3.2 0.00 0.00 0.00 68 1024.0
20260901155535 27 0.0 1.6 0.00 0.00 0.00 72 1023.9
20260901154515 27 0.0 0.0 0.00 0.00 0.00 75 1024.1
20260901153515 26 0.0 0.0 0.00 0.00 0.00 77 1024.4
20260901152516 26 0.0 1.6 0.00 0.00 0.00 79 1024.2
20260901151516 26 0.0 3.2 0.00 0.00 0.00 79 1024.2
20260901150517 25 0.0 1.6 0.00 0.00 0.00 83 1024.2
20260901145515 25 0.0 1.6 0.00 0.00 0.00 83 1024.2
20260901144515 24 0.0 3.2 0.00 0.00 0.00 84 1024.1
20260901143515 23 0.0 0.0 0.00 0.00 0.00 86 1024.0
20260901142515 23 0.0 1.6 0.00 0.00 0.00 88 1024.0
20260901141515 22 0.0 0.0 0.00 0.00 0.00 89 1023.9
20260901140516 22 0.0 0.0 0.00 0.00 0.00 90 1023.8
20260901135515 21 0.0 1.6 0.00 0.00 0.00 89 1023.7
20260901134515 21 0.0 0.0 0.00 0.00 0.00 87 1023.7
20260901133515 21 0.0 1.6 0.00 0.00 0.00 85 1023.7
20260901132515 21 0.0 0.0 0.00 0.00 0.00 84 1023.6
20260901131515 20 0.0 0.0 0.00 0.00 0.00 82 1023.8
20260901130515 20 0.0 0.0 0.00 0.00 0.00 81 1024.0
20260901125515 20 0.0 0.0 0.00 0.00 0.00 79 1023.8
20260901124535 20 0.0 0.0 0.00 0.00 0.00 78 1023.7
20260901123515 20 0.0 0.0 0.00 0.00 0.00 78 1023.8
20260901122516 19 0.0 0.0 0.00 0.00 0.00 79 1023.9
20260901121515 19 0.0 0.0 0.00 0.00 0.00 80 1023.9
20260901120515 19 0.0 0.0 0.00 0.00 0.00 80 1023.9
20260901115535 19 0.0 0.0 0.00 0.00 0.00 80 1023.8
20260901114517 18 0.0 0.0 0.00 0.00 0.00 80 1023.5
20260901113517 18 0.0 0.0 0.00 0.00 0.00 81 1023.5
20260901112517 18 0.0 0.0 0.00 0.00 0.00 81 1023.4
20260901111517 18 0.0 0.0 0.00 0.00 0.00 81 1023.3
20260901110515 18 0.0 0.0 0.00 0.00 0.00 82 1023.1
20260901105517 18 0.0 0.0 0.00 0.00 0.00 83 1023.1
20260901104537 18 0.0 0.0 0.00 0.00 0.00 83 1023.0
20260901103517 18 0.0 0.0 0.00 0.00 0.00 84 1022.9
20260901102537 19 0.0 0.0 0.00 0.00 0.00 83 1022.8
20260901101517 19 0.0 0.0 0.00 0.00 0.00 83 1022.9
20260901100517 19 0.0 0.0 0.00 0.00 0.00 83 1022.8
20260901095517 19 0.0 0.0 0.00 0.00 0.00 83 1022.7
20260901094517 19 0.0 0.0 0.00 0.00 0.00 84 1022.6
20260901093517 19 0.0 0.0 0.00 0.00 0.00 84 1022.6
20260901092517 19 0.0 0.0 0.00 0.00 0.00 85 1022.7
20260901091517 19 0.0 0.0 0.00 0.00 0.00 84 1022.7
20260901090517 19 0.0 0.0 0.00 0.00 0.00 83 1022.8
20260901085517 20 0.0 0.0 0.00 0.00 0.00 83 1022.9
20260901084517 20 0.0 0.0 0.00 0.00 0.00 82 1023.1
20260901083517 19 0.0 0.0 0.00 0.00 0.00 83 1023.2
20260901082537 19 0.0 0.0 0.00 0.00 0.00 83 1023.3
20260901081517 19 0.0 0.0 0.00 0.00 0.00 84 1023.4
20260901080517 19 0.0 0.0 0.00 0.00 0.00 85 1023.6
20260901075517 20 0.0 0.0 0.00 0.00 0.00 85 1023.5
20260901074537 20 0.0 0.0 0.00 0.00 0.00 85 1023.5
20260901073517 20 0.0 0.0 0.00 0.00 0.00 85 1023.5
20260901072517 20 0.0 0.0 0.00 0.00 0.00 85 1023.5
20260901071557 20 0.0 0.0 0.00 0.00 0.00 86 1023.6
20260901070517 20 0.0 0.0 0.00 0.00 0.00 85 1023.6
20260901065517 20 0.0 0.0 0.00 0.00 0.00 86 1023.6
20260901064517 20 0.0 0.0 0.00 0.00 0.00 87 1023.5
20260901063517 20 0.0 0.0 0.00 0.00 0.00 87 1023.6
20260901062517 20 0.0 0.0 0.00 0.00 0.00 87 1023.7
20260901061557 20 0.0 0.0 0.00 0.00 0.00 88 1023.7
20260901060536 20 0.0 0.0 0.00 0.00 0.00 88 1023.7
20260901055517 20 0.0 0.0 0.00 0.00 0.00 88 1023.7
20260901054517 20 0.0 0.0 0.00 0.00 0.00 89 1023.9
20260901053518 20 0.0 0.0 0.00 0.00 0.00 89 1023.6
20260901052516 20 0.0 0.0 0.00 0.00 0.00 89 1023.7
20260901051516 20 0.0 0.0 0.00 0.00 0.00 89 1023.7
20260901050516 20 0.0 0.0 0.00 0.00 0.00 89 1023.8
20260901045516 20 0.0 0.0 0.00 0.00 0.00 89 1023.8
20260901044517 21 0.0 0.0 0.00 0.00 0.00 90 1023.9